Time,TemperatureF,DewpointF,PressureIn,WindDirection,WindDirectionDegrees,WindSpeedMPH,WindSpeedGustMPH,Humidity,HourlyPrecipIn,Conditions,Clouds,dailyrainin,SoftwareType,DateUTC
2014-09-02 00:05:00,80.1,75.0,29.92,NW,314,1.0,3.0,85,0.00,,,0.00,weatherlink.com 1.10,2014-09-02 04:05:00,
2014-09-02 00:20:00,79.9,75.0,29.92,NW,309,0.0,1.0,85,0.00,,,0.00,weatherlink.com 1.10,2014-09-02 04:20:00,
2014-09-02 00:35:00,79.9,75.0,29.92,WSW,250,0.0,2.0,85,0.00,,,0.00,weatherlink.com 1.10,2014-09-02 04:35:00,
2014-09-02 00:50:00,79.8,75.0,29.92,WNW,284,0.0,2.0,85,0.00,,,0.00,weatherlink.com 1.10,2014-09-02 04:50:00,
2014-09-02 01:05:00,79.8,75.0,29.91,WSW,257,0.0,3.0,85,0.00,,,0.00,weatherlink.com 1.10,2014-09-02 05:05:00,
2014-09-02 01:20:00,79.8,75.0,29.91,West,274,0.0,5.0,85,0.00,,,0.00,weatherlink.com 1.10,2014-09-02 05:20:00,
2014-09-02 01:35:00,79.8,75.0,29.91,NW,315,0.0,4.0,85,0.00,,,0.00,weatherlink.com 1.10,2014-09-02 05:35:00,
2014-09-02 01:50:00,79.5,75.0,29.91,WNW,297,0.0,2.0,86,0.00,,,0.00,weatherlink.com 1.10,2014-09-02 05:50:00,
2014-09-02 02:05:00,79.1,75.0,29.90,NW,313,0.0,1.0,86,0.00,,,0.00,weatherlink.com 1.10,2014-09-02 06:05:00,
2014-09-02 02:20:00,79.1,75.0,29.90,WNW,291,0.0,3.0,86,0.00,,,0.00,weatherlink.com 1.10,2014-09-02 06:20:00,
2014-09-02 02:35:00,79.3,75.0,29.90,West,279,0.0,5.0,86,0.00,,,0.00,weatherlink.com 1.10,2014-09-02 06:35:00,
2014-09-02 02:50:00,79.1,75.0,29.90,NW,304,0.0,3.0,86,0.00,,,0.00,weatherlink.com 1.10,2014-09-02 06:50:00,
2014-09-02 03:05:00,79.0,75.0,29.90,WNW,290,0.0,3.0,87,0.00,,,0.00,weatherlink.com 1.10,2014-09-02 07:05:00,
2014-09-02 03:20:00,78.8,75.0,29.90,NE,51,1.0,5.0,87,0.00,,,0.00,weatherlink.com 1.10,2014-09-02 07:20:00,
2014-09-02 03:36:00,78.7,75.0,29.90,SW,219,1.0,3.0,87,0.00,,,0.00,weatherlink.com 1.10,2014-09-02 07:36:00,
2014-09-02 03:51:00,78.5,75.0,29.89,West,273,3.0,3.0,88,0.00,,,0.00,weatherlink.com 1.10,2014-09-02 07:51:00,
2014-09-02 04:06:00,78.4,75.0,29.89,WSW,256,1.0,3.0,88,0.00,,,0.00,weatherlink.com 1.10,2014-09-02 08:06:00,
2014-09-02 04:21:00,78.3,75.0,29.89,NW,308,1.0,4.0,88,0.00,,,0.00,weatherlink.com 1.10,2014-09-02 08:21:00,
2014-09-02 04:36:00,78.0,74.0,29.88,WNW,298,0.0,3.0,88,0.00,,,0.00,weatherlink.com 1.10,2014-09-02 08:36:00,
2014-09-02 04:51:00,-999.0,-99.9,29.88,North,-999,-999.0,-999.0,-999,0.00,,,0.00,weatherlink.com 1.10,2014-09-02 08:51:00,
2014-09-02 05:06:00,-999.0,-99.9,29.88,North,-999,-999.0,-999.0,-999,0.00,,,0.00,weatherlink.com 1.10,2014-09-02 09:06:00,
2014-09-02 05:28:00,-999.0,-99.9,29.88,North,-999,-999.0,-999.0,-999,0.00,,,0.00,weatherlink.com 1.10,2014-09-02 09:28:00,
2014-09-02 05:36:00,-999.0,-99.9,29.88,North,-999,-999.0,-999.0,-999,0.00,,,0.00,weatherlink.com 1.10,2014-09-02 09:36:00,
2014-09-02 05:51:00,-999.0,-99.9,29.88,North,-999,-999.0,-999.0,-999,0.00,,,0.00,weatherlink.com 1.10,2014-09-02 09:51:00,
2014-09-02 06:06:00,-999.0,-99.9,29.88,North,-999,-999.0,-999.0,-999,0.00,,,0.00,weatherlink.com 1.10,2014-09-02 10:06:00,
2014-09-02 06:21:00,-999.0,-99.9,29.89,North,-999,-999.0,-999.0,-999,0.00,,,0.00,weatherlink.com 1.10,2014-09-02 10:21:00,
2014-09-02 06:37:00,-999.0,-99.9,29.89,North,-999,-999.0,-999.0,-999,0.00,,,0.00,weatherlink.com 1.10,2014-09-02 10:37:00,
2014-09-02 06:52:00,-999.0,-99.9,29.90,North,-999,-999.0,-999.0,-999,0.00,,,0.00,weatherlink.com 1.10,2014-09-02 10:52:00,
2014-09-02 07:07:00,78.7,75.0,29.90,SSE,158,0.0,1.0,88,0.00,,,0.00,weatherlink.com 1.10,2014-09-02 11:07:00,
2014-09-02 07:22:00,79.4,75.0,29.90,SW,224,0.0,1.0,86,0.00,,,0.00,weatherlink.com 1.10,2014-09-02 11:22:00,
2014-09-02 07:37:00,79.9,75.0,29.90,NW,312,0.0,6.0,84,0.00,,,0.00,weatherlink.com 1.10,2014-09-02 11:37:00,
2014-09-02 07:51:00,80.6,75.0,29.90,WNW,293,0.0,4.0,83,0.00,,,0.00,weatherlink.com 1.10,2014-09-02 11:51:00,
2014-09-02 08:07:00,81.2,75.0,29.91,WNW,301,0.0,5.0,81,0.00,,,0.00,weatherlink.com 1.10,2014-09-02 12:07:00,
2014-09-02 08:22:00,81.6,75.0,29.91,WNW,297,0.0,4.0,80,0.00,,,0.00,weatherlink.com 1.10,2014-09-02 12:22:00,
2014-09-02 08:37:00,81.7,75.0,29.91,West,280,4.0,6.0,79,0.00,,,0.00,weatherlink.com 1.10,2014-09-02 12:37:00,
2014-09-02 08:52:00,81.6,75.0,29.91,WNW,301,0.0,4.0,80,0.00,,,0.00,weatherlink.com 1.10,2014-09-02 12:52:00,
2014-09-02 09:07:00,83.1,76.0,29.91,NNW,346,0.0,4.0,78,0.00,,,0.00,weatherlink.com 1.10,2014-09-02 13:07:00,
2014-09-02 09:22:00,83.6,75.0,29.91,WNW,293,1.0,3.0,76,0.00,,,0.00,weatherlink.com 1.10,2014-09-02 13:22:00,
2014-09-02 09:39:00,83.4,75.0,29.91,WSW,243,0.0,5.0,76,0.00,,,0.00,weatherlink.com 1.10,2014-09-02 13:39:00,
2014-09-02 09:52:00,84.0,75.0,29.91,WNW,284,1.0,4.0,74,0.00,,,0.00,weatherlink.com 1.10,2014-09-02 13:52:00,
2014-09-02 10:07:00,85.5,76.0,29.91,WNW,282,0.0,3.0,72,0.00,,,0.00,weatherlink.com 1.10,2014-09-02 14:07:00,
2014-09-02 10:22:00,86.5,75.0,29.91,SSW,197,1.0,4.0,69,0.00,,,0.00,weatherlink.com 1.10,2014-09-02 14:22:00,
2014-09-02 10:37:00,87.1,75.0,29.91,WNW,290,0.0,4.0,67,0.00,,,0.00,weatherlink.com 1.10,2014-09-02 14:37:00,
2014-09-02 10:52:00,87.3,75.0,29.90,WSW,257,0.0,5.0,67,0.00,,,0.00,weatherlink.com 1.10,2014-09-02 14:52:00,
2014-09-02 11:07:00,88.0,75.0,29.90,WNW,290,1.0,5.0,65,0.00,,,0.00,weatherlink.com 1.10,2014-09-02 15:07:00,
2014-09-02 11:22:00,88.0,74.0,29.89,SSE,155,1.0,4.0,63,0.00,,,0.00,weatherlink.com 1.10,2014-09-02 15:22:00,
2014-09-02 11:37:00,88.6,74.0,29.89,SSW,204,0.0,5.0,62,0.00,,,0.00,weatherlink.com 1.10,2014-09-02 15:37:00,
2014-09-02 11:52:00,89.1,74.0,29.89,WSW,256,4.0,7.0,61,0.00,,,0.00,weatherlink.com 1.10,2014-09-02 15:52:00,
2014-09-02 12:07:00,90.2,74.0,29.88,WSW,243,4.0,5.0,59,0.00,,,0.00,weatherlink.com 1.10,2014-09-02 16:07:00,
2014-09-02 12:22:00,89.8,73.0,29.87,West,264,1.0,8.0,58,0.00,,,0.00,weatherlink.com 1.10,2014-09-02 16:22:00,
2014-09-02 12:37:00,91.1,73.0,29.87,NW,306,1.0,6.0,55,0.00,,,0.00,weatherlink.com 1.10,2014-09-02 16:37:00,
2014-09-02 12:52:00,91.2,72.0,29.87,WNW,295,2.0,7.0,54,0.00,,,0.00,weatherlink.com 1.10,2014-09-02 16:52:00,
2014-09-02 13:08:00,91.2,72.0,29.86,WNW,291,4.0,7.0,53,0.00,,,0.00,weatherlink.com 1.10,2014-09-02 17:08:00,
2014-09-02 13:23:00,91.6,72.0,29.86,West,266,5.0,6.0,53,0.00,,,0.00,weatherlink.com 1.10,2014-09-02 17:23:00,
2014-09-02 13:38:00,93.3,72.0,29.85,WNW,294,2.0,6.0,50,0.00,,,0.00,weatherlink.com 1.10,2014-09-02 17:38:00,
2014-09-02 13:53:00,92.5,71.0,29.85,NW,313,1.0,8.0,50,0.00,,,0.00,weatherlink.com 1.10,2014-09-02 17:53:00,
2014-09-02 14:08:00,91.8,71.0,29.84,North,9,4.0,9.0,51,0.00,,,0.00,weatherlink.com 1.10,2014-09-02 18:08:00,
2014-09-02 14:26:00,92.0,71.0,29.83,West,276,3.0,10.0,50,0.00,,,0.00,weatherlink.com 1.10,2014-09-02 18:26:00,
2014-09-02 14:38:00,92.9,72.0,29.83,NW,314,2.0,9.0,50,0.00,,,0.00,weatherlink.com 1.10,2014-09-02 18:38:00,
2014-09-02 14:53:00,92.8,71.0,29.82,WNW,300,4.0,10.0,49,0.00,,,0.00,weatherlink.com 1.10,2014-09-02 18:53:00,
2014-09-02 15:11:00,92.6,71.0,29.82,West,278,2.0,11.0,49,0.00,,,0.00,weatherlink.com 1.10,2014-09-02 19:11:00,
2014-09-02 15:22:00,94.6,73.0,29.81,North,5,0.0,7.0,49,0.00,,,0.00,weatherlink.com 1.10,2014-09-02 19:22:00,
2014-09-02 15:38:00,94.7,72.0,29.81,South,179,0.0,7.0,48,0.00,,,0.00,weatherlink.com 1.10,2014-09-02 19:38:00,
2014-09-02 16:27:00,93.0,72.0,29.80,West,266,1.0,9.0,50,0.00,,,0.00,weatherlink.com 1.10,2014-09-02 20:27:00,
2014-09-02 16:39:00,92.3,72.0,29.80,NW,309,5.0,7.0,51,0.00,,,0.00,weatherlink.com 1.10,2014-09-02 20:39:00,
2014-09-02 16:55:00,92.2,71.0,29.80,NNW,340,0.0,7.0,50,0.00,,,0.00,weatherlink.com 1.10,2014-09-02 20:55:00,
2014-09-02 17:09:00,93.8,71.0,29.79,SSW,203,0.0,9.0,47,0.00,,,0.00,weatherlink.com 1.10,2014-09-02 21:09:00,
2014-09-02 17:24:00,92.9,70.0,29.79,West,271,2.0,9.0,47,0.00,,,0.00,weatherlink.com 1.10,2014-09-02 21:24:00,
2014-09-02 18:08:00,92.5,71.0,29.78,South,169,1.0,6.0,49,0.00,,,0.00,weatherlink.com 1.10,2014-09-02 22:08:00,
2014-09-02 18:23:00,92.7,70.0,29.78,NNW,342,0.0,4.0,48,0.00,,,0.00,weatherlink.com 1.10,2014-09-02 22:23:00,